Find Starlink 30446

NORAD ID: 57872 Int'l Des: 2023-144 Owner: SPXS Country: US Constellation: starlink operational
LEOCIRCULAR

Live Position

Loading 3D Globe...

About Starlink 30446

Description loading...

Upcoming Passes

Passes for default location (London). Set your location on the main map for personalized predictions.

Altitude History

Loading altitude history...

Two-Line Element Set

1 57872U 23144J 26125.51339209 -.00002889 00000-0 -95448-4 0 9994
2 57872 43.0034 310.1615 0000795 306.2598 53.8181 15.27594873146228
Epoch: May 5, 2026 • Age: 15 hours

Current Status

Altitude 492.6 km
Velocity 7.62 km/s
Sub-Earth Point -34.33°S, 102.73°W
Launch Date Sep 16, 2023
Age 2.6 years
Type internet

Technical Details

Classification Payload
Mass 730.00 kg
Dry Mass 700.00 kg
Total Mass 730.00 kg
Length 0.30 m
Diameter 4.10 m
Span 29.00 m
Shape Box + pan
Manufacturer SPXS
Bus Type Starlink V2M
Phase Status In Orbit
Owner/State SPXS/US

Most Searched